Location: Betz
(49.1556°N, 2.9558°E)
Time: 01:30:33
(UTC+00:00)

Resurs 01 Rocket - Visible Passes

Search period start: 27 February 2021 00:00
Search period end: 09 March 2021 00:00
Orbit: 633 x 645 km, 98.0° (Epoch: 26 February)

Date Brightness Start Highest point End Pass type
(mag) Time Alt. Az. Time Alt. Az. Time Alt. Az.
27 Feb 3.0 19:17:00 23° NE 19:17:00 23° NE 19:19:43 10° N visible
27 Feb 3.6 20:54:33 25° NW 20:54:33 25° NW 20:56:41 10° NNW visible
28 Feb 2.6 19:40:18 32° NE 19:40:18 32° NE 19:43:16 10° N visible
28 Feb 4.2 21:17:52 19° NW 21:17:52 19° NW 21:19:31 10° NW visible
01 Mar 2.4 20:03:37 41° NNE 20:03:37 41° NNE 20:06:39 10° N visible
01 Mar 4.6 21:41:10 13° WNW 21:41:10 13° WNW 21:42:00 10° NW visible
02 Mar 3.4 18:49:22 15° ENE 18:49:31 15° ENE 18:51:59 10° NNE visible
02 Mar 2.6 20:26:55 42° NNW 20:26:55 42° NNW 20:29:53 10° NNW visible
03 Mar 2.9 19:12:40 22° ENE 19:12:40 22° ENE 19:15:53 10° NNE visible
03 Mar 3.2 20:50:14 33° NW 20:50:14 33° NW 20:52:58 10° NNW visible
04 Mar 2.4 19:35:59 33° NE 19:35:59 33° NE 19:39:28 10° N visible
04 Mar 3.8 21:13:32 23° WNW 21:13:32 23° WNW 21:15:50 10° NW visible
05 Mar 2.0 19:59:18 49° NNE 19:59:18 49° NNE 20:02:52 10° N visible
05 Mar 4.4 21:36:51 15° WNW 21:36:51 15° WNW 21:38:24 10° NW visible
06 Mar 3.4 18:45:03 13° ENE 18:45:49 14° ENE 18:48:04 10° NNE visible
06 Mar 2.1 20:22:37 56° NNW 20:22:37 56° NNW 20:26:08 10° NNW visible
07 Mar 2.9 19:08:22 21° ENE 19:08:44 21° ENE 19:12:03 10° NNE visible
07 Mar 2.7 20:45:55 42° WNW 20:45:55 42° WNW 20:49:14 10° NNW visible
08 Mar 2.4 19:31:41 32° ENE 19:31:44 32° ENE 19:35:41 10° N visible
08 Mar 3.5 21:09:14 28° WNW 21:09:14 28° WNW 21:12:10 10° NNW visible
